Flag for U.S.A. Weather past 2 weeks in Pierre, South Dakota, U.S.A.

Now
68 °F

Light rain. Passing clouds.


Feels Like: 68 °F
Forecast: 68 / 92 °F
Wind: 7 mph from North

Location: Pierre Regional Airport

Current Time: Sep 4, 2015 at 7:37:43 AM

Latest Report: Sep 4, 2015 at 6:53 AM


Visibility: 10 mi

Pressure: 29.65 "Hg

Humidity: 90%

Dew point: 65 °F

Location of PierreLocation

Historic Weather in Pierre — Graph

°F

Pierre temperature yesterday

Maximum temperature yesterday: 100 °F (at 2:53 PM)
Minimum temperature yesterday: 65 °F (at 6:53 AM)
Average temperature yesterday: 82 °F

Past Weeks' High & Low Weather Summary

 TemperatureHumidityPressure
High100 °F (Sep 3, 2:53 PM)100% (Aug 27, 11:53 PM)30.19 "Hg (Aug 27, 11:53 PM)
Low45 °F (Aug 24, 6:53 AM)19% (Sep 3, 5:53 PM)29.41 "Hg (Aug 22, 5:53 AM)
Average71 °F65%29.84 "Hg
* Reported Aug 20 5:53 AM — Sep 4 5:53 AM, Pierre, Weather by CustomWeather, © 2015

Note: Actual official high and low records may vary slightly from our data, if they occured in-between our weather recording intervals... More about our weather records

Advertising

Pierre weather history for previous 24 hours

 ConditionsComfort  
Time TempWeatherWind HumidityBarometerVisibility
5:53 AM
Fri, Sep 4
75 °FLight rain. Passing clouds.23 mph60%29.67 "Hg10 mi
4:53 AM73 °FLight rain. Partly cloudy.22 mph79%29.72 "Hg10 mi
3:53 AM71 °FClear.3 mph93%29.62 "Hg10 mi
2:53 AM72 °FClear.No wind91%29.61 "Hg10 mi
1:53 AM75 °FClear.6 mph85%29.62 "Hg10 mi
12:53 AM75 °FClear.8 mph85%29.62 "Hg10 mi
11:53 PM
Thu, Sep 3
77 °FClear.9 mph79%29.62 "Hg10 mi
10:53 PM79 °FClear.10 mph77%29.64 "Hg10 mi
9:53 PM81 °FClear.14 mph69%29.65 "Hg10 mi
8:53 PM82 °FSunny.10 mph63%29.64 "Hg10 mi
7:53 PM82 °FSunny.9 mph56%29.65 "Hg10 mi
6:53 PM87 °FSunny.10 mph35%29.64 "Hg10 mi
5:53 PM96 °FSunny.18 mph19%29.60 "Hg10 mi
4:53 PM97 °FSunny.22 mph24%29.61 "Hg10 mi
3:53 PM98 °FSunny.22 mph24%29.62 "Hg10 mi
2:53 PM100 °FSunny.21 mph24%29.63 "Hg10 mi
1:53 PM99 °FSunny.17 mph28%29.64 "Hg10 mi
12:53 PM96 °FSunny.16 mph35%29.65 "Hg10 mi
11:53 AM90 °FSunny.14 mph45%29.67 "Hg10 mi
10:53 AM85 °FSunny.14 mph51%29.68 "Hg10 mi
9:53 AM77 °FWarm.N/A64%29.68 "HgN/A
8:53 AM74 °FSunny.7 mph69%29.69 "Hg10 mi
7:53 AM67 °FClear.No wind85%29.69 "Hg10 mi
Weather by CustomWeather, © 2015

See weather overviewHow to use our weather pages